CZ-6A DEB, 56586

Orbit data source: Space-Track

CZ-6A DEB, 56586 is space debris in SSO originally from a launch on Fri, 11 Nov 2022 UTC launched from the Taiyaun Space Center, China (TSC). Debris objects in space refer to the collection of defunct objects orbiting the Earth. Examples of debris include non-operational satellites, rocket bodies, and fragments generated from explosions, collisions, or faulty payload assembly.

Loading next visibility...
Identifier
56586, 2022-151ADJ
Orbit
SSO
Country
Flag of CNCN / PRC
Related business
Manufacturer
SAST
Mission
Spacecraft
Bus & Motor
Unknown
Mass
Unknown
Launch date (UTC)
2022-11-11 (4 years ago)
Launch vehicle
Unknown
Launch site
Taiyaun Space Center, China (TSC)
Object type
Payload
Rocket body
Debris
Shape & HBR
Unknown shape, 0.1 m
Radar Cross Section
Small (<0.1 m²)

Expand to show TLE details & history
Last TLE update: 2 days ago

TLE from 2 days ago
0 CZ-6A DEB
1 56586U 22151ADJ 26234.66934051  .00020677  00000-0  23719-2 0  9998
2 56586  98.6391 310.5033 0047257  70.4814 290.1493 14.85095733188620
Epoch: 2026-08-22T16:03Z
TLE epoch observation values (Epoch: 2026-08-22T16:03:51.020Z)
Latitude
-0.00007°
Longitude
98.5643°
Altitude
605.045 km
Speed
7.563 km/s
True Right ascension
20h 42m 00s
True Declination
0° 00' 00"
Sunlit
Object was in full shadow at epoch
Visualization orbit readout
Latitude
Unknown
Longitude
Unknown
Altitude
Unknown
Speed
Unknown
Apparent Right ascension
Unknown
Apparent Declination
Unknown
Sunlit
N/A
Visualization observer readout
Local Sidereal Time
19:30:25
Azimuth
Unknown
Elevation
Unknown
Doppler factor
Unknown
Orbital elements
Apogee altitude
643.38 km
Perigee altitude
577.329 km
Semi-major axis
6,988.491 km
Eccentricity
0.00473
Inclination
98.6391°
RAAN
310.5033°
Arg. of periapsis
70.4814°
True anomaly
289.63989°
Mean anomaly
290.1493°
Eccentric anomaly
289.8947°
Mean motion
3.71508 °/min
Orbital period
96.9 mins
BSTAR
0.0023719
Loading maneuver chart data...
Computing Atmospheric mass density...
Loading historical data...
Loading historical data...
Loading historical data...
Loading historical data...
Loading historical data...
Loading historical data...
Loading historical data...

Documentation

Showing up to 5 results
|